{"data":{"norad_id":60108,"intl_designator":"2024-117T","name":"STARLINK-32042","alt_names":[],"object_type":"PAYLOAD","status":"ACTIVE","operator":null,"country":"US","launch_date":"2024-06-23","launch_site_code":"AFETR","launch_vehicle":null,"mission":null,"orbit_class":"UNKNOWN","rcs_meters":null,"size_class":null,"mass_kg":null,"dimensions":null,"purposes":["comms"],"wikipedia_slug":null,"has_3d_model":false,"image_url":null,"decayed_at":null,"tle_current":{"epoch":"2026-05-25T01:47:28.317984Z","epoch_age_seconds":71763,"freshness":"FRESH","line1":"1 60108U 24117T   26145.07463331  .00000742  00000+0  37180-4 0  9990","line2":"2 60108  53.1613  42.1581 0001141  83.1203 276.9927 15.30196920108581","mean_motion":15.3019692,"eccentricity":0.0001141,"inclination_deg":53.1613,"raan_deg":42.1581,"arg_perigee_deg":83.1203,"mean_anomaly_deg":276.9927,"bstar":3.718e-5,"rev_number":10858,"period_min":94.105535122891,"perigee_km":474.44229723915,"apogee_km":476.00623428,"semimajor_km":6853.3612657596,"source":"CELESTRAK","updated_at":"2026-05-25T13:38:19.163729Z"}}}